Location: Unspecified
(0.0000°N, 0.0000°E)
Time: 23:34:51
(UTC+00:00)

SR - All Passes

Search period start: 28 May 2022 00:00
Search period end: 07 June 2022 00:00
Orbit: 574 x 879 km, 66.7° (Epoch: 28 May)

Date Brightness Start Highest point End Pass type
(mag) Time Alt. Az. Time Alt. Az. Time Alt. Az.
28 May - 02:05:18 10° SSE 02:08:39 22° ESE 02:12:07 10° ENE night (unlit)
28 May - 03:47:59 10° WSW 03:50:23 15° WNW 03:52:52 10° NW visible
28 May - 14:29:25 10° NNW 14:35:15 72° ENE 14:40:47 10° SSE daylight
29 May - 02:56:15 10° SW 03:00:19 42° WNW 03:04:37 10° N visible
29 May - 13:40:12 10° N 13:45:12 29° ENE 13:49:59 10° SE daylight
29 May - 15:22:44 10° WNW 15:26:59 21° WSW 15:31:05 10° SSW daylight
30 May - 02:06:06 10° S 02:10:19 60° ESE 02:14:48 10° NNE night (unlit)
30 May - 12:53:06 10° NE 12:55:04 12° ENE 12:56:59 10° E daylight
30 May - 14:31:24 10° NNW 14:37:02 52° WSW 14:42:22 10° S daylight
31 May - 01:17:16 10° SSE 01:20:24 20° ESE 01:23:38 10° ENE night (unlit)
31 May - 02:59:19 10° WSW 03:02:07 17° WNW 03:05:02 10° NNW night (unlit)
31 May - 13:41:16 10° N 13:47:02 64° ENE 13:52:30 10° SSE daylight
01 Jun - 02:07:53 10° SW 02:12:03 49° WNW 02:16:28 10° N night (unlit)
01 Jun - 12:52:12 10° NNE 12:56:58 26° ENE 13:01:33 10° SE daylight
01 Jun - 14:34:16 10° WNW 14:38:46 24° WSW 14:43:05 10° SSW daylight
02 Jun - 01:17:54 10° S 01:22:04 51° ESE 01:26:30 10° NNE night (unlit)
02 Jun - 12:06:23 10° ENE 12:06:49 10° ENE 12:07:15 10° ENE daylight
02 Jun - 13:43:07 10° NNW 13:48:49 58° WSW 13:54:11 10° S daylight
03 Jun - 00:29:17 10° SSE 00:32:09 17° ESE 00:35:06 10° ENE night (unlit)
03 Jun - 02:10:43 10° WSW 02:13:51 19° WNW 02:17:07 10° NNW night (unlit)
03 Jun - 12:53:07 10° N 12:58:48 57° ENE 13:04:11 10° SSE daylight
04 Jun - 01:19:33 10° SSW 01:23:47 57° WNW 01:28:18 10° N night (unlit)
04 Jun - 12:04:12 10° NNE 12:08:43 23° ENE 12:13:04 10° ESE daylight
04 Jun - 13:45:50 10° NW 13:50:33 26° WSW 13:55:02 10° SSW daylight
05 Jun - 00:29:42 10° S 00:33:49 44° ESE 00:38:10 10° NE night (unlit)
05 Jun - 12:54:51 10° NNW 13:00:35 65° WSW 13:05:59 10° S daylight
05 Jun - 23:41:22 10° SE 23:43:53 15° ESE 23:46:29 10° ENE night (unlit)
06 Jun - 01:22:10 10° WSW 01:25:34 22° WNW 01:29:09 10° NNW night (unlit)
06 Jun - 12:04:57 10° N 12:10:34 51° ENE 12:15:52 10° SE daylight
06 Jun - 13:50:35 10° W 13:52:16 11° WSW 13:53:55 10° SW daylight
